Hourly Data Report for February 03, 2004

SHERBROOKE A
QUEBEC

45°26'00.000" N
71°41'00.000" W
241.40 m
7028124
71610
YSC

Download Data

Hourly Data (February 2004)
Hourly Data Report for February 3, 2004
TIME
LST
Temp Definition
°C
Dew Point Definition
°C
Rel Hum Definition
%
Precip. Amount Definition
mm

Wind Dir Definition
10's deg

Wind Spd Definition
km/h
Visibility Definition
km
Stn Press Definition
kPa
Hmdx Definition


Wind Chill Definition


Weather Definition


00:00 -15.4 -18.8 75   9 7 15.0 99.92   -20  
01:00 -15.7 -19.1 75   9 9 15.0 99.83   -22  
02:00 -15.9 -19.1 76   9 9 15.0 99.79   -22  
03:00 -15.9 -19.1 76   8 9 15.0 99.73   -22  
04:00 -16.4 -19.7 76   8 9 15.0 99.69   -22  
05:00 -18.7 -21.9 76   10 4 15.0 99.71   -22  
06:00 -19.7 -22.7 77   8 7 15.0 99.67   -25  
07:00 -16.7 -19.9 76   8 11 15.0 99.61   -24  
08:00 -16.8 -20.1 76   7 7 24.1 99.57   -22 Mainly Clear
09:00 -14.4 -17.6 77   8 7 24.1 99.56   -19 Mainly Clear
10:00 -10.5 -14.0 75   9 7 24.1 99.50   -15 Mainly Clear
11:00 -4.7 -12.5 54   4 4 24.1 99.39   -6 Mostly Cloudy
12:00 -0.8 -11.5 44     0 24.1 99.22     Mostly Cloudy
13:00 1.2 -11.1 39   23 9 24.1 99.17     Mostly Cloudy
14:00 4.3 -11.2 31   16 9 24.1 99.00     Mostly Cloudy
15:00 4.2 -11.0 32   17 7 24.1 98.91     Mostly Cloudy
16:00 2.5 -10.3 38   16 7 24.1 98.87     Mostly Cloudy
17:00 1.5 -10.1 42   9 4 24.1 98.83     Mostly Cloudy
18:00 0.4 -9.0 49   16 4 15.0 98.78      
19:00 0.4 -8.8 50   12 11 15.0 98.68      
20:00 0.1 -8.8 51   12 9 15.0 98.69      
21:00 -1.0 -6.8 65   13 17 4.8 98.55   -6 Snow
22:00 -1.3 -6.6 67   15 11 15.0 98.47   -5 Snow
23:00 -2.0 -5.7 76   12 13 0.5 98.38   -6 Snow

Notes on Data Quality.

Legend

  • E = Estimated
  • M = Missing
  • NA = Not Available*
  • [empty] = Indicates an unobserved value
Date modified: